Stündliche Wetter Otonec

Heute, 10 April, Samstag

Zeit Temperatur Niederschläge Wind Luftdruck Luftfeuchtigkeit
00:00 +1°C° 0 mm 5 m/S 740 mmHg 71%
01:00 +1°C° 0 mm 5 m/S 740 mmHg 71%
02:00 +1°C° 0 mm 5 m/S 740 mmHg 71%
03:00 +1°C° 0 mm 5 m/S 740 mmHg 71%
04:00 +1°C° 0 mm 5 m/S 740 mmHg 71%
05:00 +1°C° 0 mm 5 m/S 740 mmHg 72%
06:00 +1°C° 0 mm 5 m/S 740 mmHg 69%
07:00 +2°C° 0 mm 5 m/S 740 mmHg 67%
08:00 +2°C° 0 mm 5 m/S 740 mmHg 65%
09:00 +4°C° 0 mm 6 m/S 740 mmHg 60%
10:00 +5°C° 0 mm 6 m/S 740 mmHg 56%
11:00 +7°C° 0 mm 6 m/S 740 mmHg 51%
12:00 +8°C° 0 mm 6 m/S 740 mmHg 50%
13:00 +9°C° 0 mm 6 m/S 740 mmHg 49%
14:00 +9°C° 0 mm 6 m/S 740 mmHg 48%
15:00 +9°C° 0 mm 6 m/S 740 mmHg 50%
16:00 +9°C° 0 mm 6 m/S 740 mmHg 53%
17:00 +8°C° 0 mm 6 m/S 740 mmHg 55%
18:00 +8°C° 0 mm 5 m/S 740 mmHg 59%
19:00 +7°C° 0 mm 5 m/S 740 mmHg 62%
20:00 +6°C° 0 mm 5 m/S 741 mmHg 65%
21:00 +5°C° 0.7 mm 4 m/S 741 mmHg 74%
22:00 +4°C° 0.7 mm 3 m/S 742 mmHg 84%
23:00 +4°C° 0.7 mm 2 m/S 743 mmHg 93%

Morgen, 11 April, Sonntag

Zeit Temperatur Niederschläge Wind Luftdruck Luftfeuchtigkeit
00:00 +5°C° 0.2 mm 1 m/S 743 mmHg 93%
01:00 +5°C° 0.2 mm 1 m/S 744 mmHg 93%
02:00 +4°C° 0.2 mm 1 m/S 744 mmHg 93%
03:00 +4°C° 0.4 mm 1 m/S 744 mmHg 93%
04:00 +4°C° 0.4 mm 1 m/S 745 mmHg 94%
05:00 +3°C° 0.4 mm 1 m/S 745 mmHg 95%
06:00 +4°C° 0 mm 1 m/S 745 mmHg 94%
07:00 +4°C° 0 mm 1 m/S 746 mmHg 93%
08:00 +5°C° 0 mm 1 m/S 746 mmHg 92%
09:00 +5°C° 0 mm 1 m/S 747 mmHg 91%
10:00 +5°C° 0 mm 1 m/S 747 mmHg 90%
11:00 +6°C° 0 mm 1 m/S 748 mmHg 89%
12:00 +6°C° 0 mm 1 m/S 748 mmHg 87%
13:00 +7°C° 0 mm 1 m/S 748 mmHg 85%
14:00 +7°C° 0 mm 1 m/S 748 mmHg 83%
15:00 +7°C° 0 mm 1 m/S 748 mmHg 85%
16:00 +7°C° 0 mm 1 m/S 748 mmHg 87%
17:00 +7°C° 0 mm 1 m/S 748 mmHg 89%
18:00 +7°C° 0 mm 1 m/S 748 mmHg 90%
19:00 +6°C° 0 mm 1 m/S 748 mmHg 91%
20:00 +5°C° 0 mm 2 m/S 749 mmHg 92%
21:00 +5°C° 0 mm 2 m/S 749 mmHg 91%
22:00 +6°C° 0 mm 2 m/S 749 mmHg 90%
23:00 +6°C° 0 mm 2 m/S 749 mmHg 90%

übermorgen, 12 April, Montag

Zeit Temperatur Niederschläge Wind Luftdruck Luftfeuchtigkeit
00:00 +5°C° 0 mm 2 m/S 749 mmHg 90%
01:00 +5°C° 0 mm 2 m/S 749 mmHg 90%
02:00 +5°C° 0 mm 2 m/S 749 mmHg 90%
03:00 +5°C° 0 mm 2 m/S 749 mmHg 90%
04:00 +4°C° 0 mm 2 m/S 749 mmHg 90%
05:00 +4°C° 0 mm 2 m/S 749 mmHg 90%
06:00 +6°C° 0 mm 2 m/S 749 mmHg 84%
07:00 +7°C° 0 mm 3 m/S 749 mmHg 78%
08:00 +9°C° 0 mm 3 m/S 749 mmHg 71%
09:00 +10°C° 0 mm 3 m/S 749 mmHg 64%
10:00 +12°C° 0 mm 3 m/S 749 mmHg 57%
11:00 +14°C° 0 mm 4 m/S 748 mmHg 50%
12:00 +14°C° 0 mm 4 m/S 748 mmHg 47%
13:00 +15°C° 0 mm 4 m/S 747 mmHg 44%
14:00 +15°C° 0 mm 4 m/S 747 mmHg 40%
15:00 +16°C° 0 mm 3 m/S 747 mmHg 43%
16:00 +14°C° 0 mm 3 m/S 746 mmHg 45%
17:00 +14°C° 0 mm 3 m/S 746 mmHg 47%
18:00 +12°C° 0 mm 3 m/S 746 mmHg 53%
19:00 +11°C° 0 mm 3 m/S 745 mmHg 58%
20:00 +9°C° 0 mm 3 m/S 745 mmHg 64%
21:00 +9°C° 0 mm 3 m/S 745 mmHg 69%
22:00 +8°C° 0 mm 3 m/S 745 mmHg 74%
23:00 +8°C° 0 mm 3 m/S 745 mmHg 79%

13 April, Dienstag

Zeit Temperatur Niederschläge Wind Luftdruck Luftfeuchtigkeit
00:00 +8°C° 0.2 mm 3 m/S 744 mmHg 83%
01:00 +7°C° 0.2 mm 2 m/S 744 mmHg 88%
02:00 +7°C° 0.2 mm 2 m/S 744 mmHg 92%
03:00 +7°C° 0.3 mm 2 m/S 744 mmHg 94%
04:00 +7°C° 0.3 mm 2 m/S 744 mmHg 95%
05:00 +7°C° 0.3 mm 2 m/S 743 mmHg 97%
06:00 +7°C° 0.2 mm 2 m/S 743 mmHg 95%
07:00 +8°C° 0.2 mm 2 m/S 743 mmHg 94%
08:00 +8°C° 0.2 mm 2 m/S 743 mmHg 93%
09:00 +8°C° 0 mm 2 m/S 743 mmHg 92%
10:00 +9°C° 0 mm 2 m/S 743 mmHg 92%
11:00 +9°C° 0 mm 2 m/S 743 mmHg 92%
12:00 +9°C° 0.1 mm 2 m/S 743 mmHg 92%
13:00 +10°C° 0.1 mm 1 m/S 743 mmHg 93%
14:00 +10°C° 0.1 mm 1 m/S 743 mmHg 94%
15:00 +10°C° 0 mm 1 m/S 742 mmHg 94%
16:00 +9°C° 0 mm 2 m/S 742 mmHg 93%
17:00 +9°C° 0 mm 2 m/S 742 mmHg 93%
18:00 +9°C° 0 mm 2 m/S 742 mmHg 94%
19:00 +8°C° 0 mm 2 m/S 742 mmHg 95%
20:00 +8°C° 0 mm 2 m/S 742 mmHg 95%
21:00 +8°C° 0 mm 2 m/S 741 mmHg 95%
22:00 +9°C° 0 mm 1 m/S 741 mmHg 96%
23:00 +9°C° 0 mm 1 m/S 741 mmHg 96%

14 April, Mittwoch

Zeit Temperatur Niederschläge Wind Luftdruck Luftfeuchtigkeit
00:00 +9°C° 0 mm 1 m/S 741 mmHg 97%
01:00 +9°C° 0 mm 1 m/S 740 mmHg 97%
02:00 +9°C° 0 mm 1 m/S 740 mmHg 98%
03:00 +9°C° 0 mm 1 m/S 740 mmHg 98%
04:00 +9°C° 0 mm 1 m/S 740 mmHg 98%
05:00 +8°C° 0 mm 1 m/S 740 mmHg 98%
06:00 +9°C° 0 mm 1 m/S 740 mmHg 97%
07:00 +10°C° 0 mm 1 m/S 740 mmHg 95%
08:00 +9°C° 0 mm 2 m/S 740 mmHg 94%
09:00 +10°C° 0 mm 2 m/S 740 mmHg 92%
10:00 +10°C° 0 mm 2 m/S 740 mmHg 89%
11:00 +12°C° 0 mm 2 m/S 740 mmHg 87%
12:00 +12°C° 0 mm 2 m/S 740 mmHg 84%
13:00 +13°C° 0 mm 2 m/S 739 mmHg 81%
14:00 +14°C° 0 mm 2 m/S 739 mmHg 78%
15:00 +14°C° 0.3 mm 2 m/S 739 mmHg 78%
16:00 +14°C° 0.3 mm 2 m/S 739 mmHg 77%
17:00 +14°C° 0.3 mm 2 m/S 739 mmHg 77%
18:00 +12°C° 0.1 mm 2 m/S 739 mmHg 81%
19:00 +10°C° 0.1 mm 2 m/S 739 mmHg 85%
20:00 +10°C° 0.1 mm 1 m/S 739 mmHg 89%
21:00 +10°C° 0 mm 1 m/S 739 mmHg 89%
22:00 +9°C° 0 mm 1 m/S 739 mmHg 89%
23:00 +9°C° 0 mm 1 m/S 739 mmHg 89%

15 April, Donnerstag

Zeit Temperatur Niederschläge Wind Luftdruck Luftfeuchtigkeit
00:00 +9°C° 0 mm 1 m/S 739 mmHg 90%
01:00 +9°C° 0 mm 1 m/S 739 mmHg 92%
02:00 +8°C° 0 mm 1 m/S 739 mmHg 93%
03:00 +8°C° 0 mm 1 m/S 740 mmHg 94%
04:00 +8°C° 0 mm 1 m/S 740 mmHg 95%
05:00 +6°C° 0 mm 2 m/S 740 mmHg 96%
06:00 +6°C° 0 mm 2 m/S 740 mmHg 96%
07:00 +6°C° 0 mm 2 m/S 740 mmHg 95%
08:00 +6°C° 0 mm 2 m/S 741 mmHg 94%
09:00 +5°C° 0 mm 3 m/S 741 mmHg 92%
10:00 +5°C° 0 mm 3 m/S 741 mmHg 90%
11:00 +5°C° 0 mm 3 m/S 741 mmHg 88%
12:00 +5°C° 0 mm 4 m/S 741 mmHg 87%
13:00 +5°C° 0 mm 4 m/S 742 mmHg 86%
14:00 +4°C° 0 mm 4 m/S 742 mmHg 84%
15:00 +4°C° 0 mm 4 m/S 742 mmHg 83%
16:00 +3°C° 0 mm 4 m/S 742 mmHg 82%
17:00 +1°C° 0 mm 4 m/S 742 mmHg 80%
18:00 +1°C° 0 mm 4 m/S 742 mmHg 77%
19:00 +1°C° 0 mm 4 m/S 742 mmHg 74%
20:00 +1°C° 0 mm 4 m/S 743 mmHg 70%
21:00 0°C° 0 mm 4 m/S 743 mmHg 72%
22:00 -1°C° 0 mm 4 m/S 743 mmHg 73%
23:00 -1°C° 0 mm 4 m/S 743 mmHg 75%
Mehr zeigen

Wir brauchen deine Erlaubnis

Meteoprog und unser Service Anbieter werden persönliche Daten aufbewahren, so wie Cookies, Geräte Bezeichnung oder ähnliche Technologien von deinem Gerät und Prozess, so wie Persönliche Daten Inhalte und Werbungen, genauso wie social Media und den Verkehr zu analysieren.

  • Aufbewahrung und/oder Zugang zu deiner Geräte Informationen.

    Cookies, Geräte Bezeichnung oder andere Informationen, können aufbewahrt oder Zugang zu deinem Gerät erhalten, für den Grund, der oben angegeben wird.

  • Personalisierte Werbung und Inhalte, Messungen, Einblick in das Publikum und Produkt Entwicklung.

    Werbungen und Inhalte können personalisiert werden, basierend auf ein Profil. Mehr Daten können besser personalisierte Werbungen und Inhalte hinzufügen. Werbung und Inhalte können gezeigt und gemessen werden. Einblicke über das Publikum, welche die Werbung gesehen haben und den Inhalt, können abgeleitet werden. So wie Daten können genutzt werden, um es zu verbessern oder die Benutzer Erfahrung zu verbessern das System und die Software.

Wenn du “Ich stimme zu” klickst, erlaubst du uns, die Cookies zu benutzen die Geräte Bezeichnung, den Web oder ähnliche Technologien zu benutzen. Deine Settings, können in deinem Gerät bei deinem Browser geändert werden.

Für den bestimmten Zweck, berechtigten Interessen beruhen darauf, mehr als auf den Inhalt. Du kannst mehr darüber in unseren Privaten und Cookie Politik lesen.